User: anonymous   Login
Location: Unspecified
(0.0000°N, 0.0000°E)
Time: 10:52:12
(UTC+00:00)
Language:

LO-87 - Orbit

View from above orbital plane
View from above orbital plane
View from above satellite
View from above satellite

Ground track
Ground track

The orbit data is extracted from the following two-line orbital elements,

1 41557U 16033B   21017.16149896  .00001525  00000-0  57083-4 0  9990
2 41557  97.3987 112.0322 0014538  56.1209   6.0971 15.28774564258414
Epoch (UTC): 17 January 2021 03:52:33
Eccentricity: 0.0014538
inclination: 97.3987°
perigee height: 469 km
apogee height: 489 km
right ascension of ascending node: 112.0322°
argument of perigee: 56.1209°
revolutions per day: 15.28774564
mean anomaly at epoch: 6.0971°
orbit number at epoch: 25841

The dashed part of the orbit path shows where the satellite is in the earth's shadow,  

DLR